Location: Mount Cross
(36.6390°N, 79.4878°W)
Time: 18:10:17
(UTC+00:00)

Courier 1B Rocket - Pass Details

Date: 26 March 2023
Orbit: 920 x 1202 km, 28.2° (Epoch: 08 June)

Event Time Altitude Azimuth Distance (km) Brightness Sun altitude
Rises 22:09:57 0° 198° (SSW) 3,995 8.6 16.1°
Reaches altitude 10° 22:15:58 10° 162° (SSE) 2,961 7.5 14.9°
Maximum altitude 22:17:15 11° 151° (SSE) 2,907 7.3 14.7°
Drops below altitude 10° 22:18:31 10° 141° (SE) 2,926 7.3 14.4°
Sets 22:24:13 0° 104° (ESE) 3,796 7.5 13.3°
